Regional Weather Roundup
Issued by NWS

Home | Current Version | Previous Version | Text Only | Print | Product List | Glossary Off
Versions: 1 2 3 4 5 6 7 8 9 10 11 12 13 14 15 16 17 18 19 20 21 22 23 24 25 26 27 28 29 30 31 32 33 34 35 36 37 38 39 40 41 42 43 44 45 46 47 48 49 50

000
ASUS43 KMKX 020900
RWRWI

WISCONSIN REGIONAL WEATHER ROUNDUP
NATIONAL WEATHER SERVICE MILWAUKEE/SULLIVAN WI
300 AM CST FRI DEC 02 2016

NOTE: "FAIR" INDICATES FEW OR NO CLOUDS BELOW 12,000 FEET WITH NO
SIGNIFICANT WEATHER AND/OR OBSTRUCTIONS TO VISIBILITY.

WIZ001-002-006>008-014>016-023>028-021000-
NORTHWEST WISCONSIN

CITY           SKY/WX    TMP DP  RH WIND       PRES   REMARKS
SUPERIOR ARPT  CLOUDY    30  23  75 N5        30.07R WCI  26
ASHLAND        CLOUDY    30  23  75 W13G21    30.05R WCI  20
HAYWARD        CLOUDY    29  21  72 W3        30.04R
SIREN          CLOUDY    29  21  73 CALM      30.08R
CUMBERLAND     CLOUDY    28  19  69 N8        30.06R WCI  20
RICE LAKE      CLOUDY    29  22  74 NW7       30.08R WCI  22
CHETEK         CLOUDY    29  23  76 N8        30.06R WCI  21
LADYSMITH      CLOUDY    30  23  76 NW8       30.05R WCI  22
EAU CLAIRE     NOT AVBL
MENOMONIE      CLOUDY    31  23  72 NW10      30.07R WCI  23
NEW RICHMOND   CLOUDY    30  23  74 NW8       30.08R WCI  23
OSCEOLA        CLOUDY    31  22  69 NW6       30.12R WCI  25
$$

WIZ003>005-009-010-017-018-021000-
NORTH CENTRAL WISCONSIN

CITY           SKY/WX    TMP DP  RH WIND       PRES   REMARKS
MANITOWISH WTR CLOUDY    26  26 100 NW8       29.97R WCI  18
ARBOR VITAE    CLOUDY    29  27  90 NW3       29.97R
WOODRUFF       CLOUDY    29  27  90 NW3       29.97R
RHINELANDER    CLOUDY    28  25  88 NW8       29.97R WCI  20
EAGLE RIVER    CLOUDY    27  22  80 NW13      29.95R WCI  16
LAND O LAKES   CLOUDY    28  25  89 NW10      29.96R WCI  18
PHILLIPS       CLOUDY    27  23  85 NW5       30.00R WCI  21
TOMAHAWK       CLOUDY    28  23  82 W6        29.99R WCI  21
MEDFORD        CLOUDY    28  22  78 W8        29.99R WCI  20
MERRILL        CLOUDY    29  24  79 NW7       30.00R WCI  22
$$

WIZ029-030-035-036-043>047-021000-
CENTRAL WISCONSIN

CITY           SKY/WX    TMP DP  RH WIND       PRES   REMARKS
WAUSAU         CLOUDY    30  23  75 NW9       29.99R WCI  22
MOSINEE        CLOUDY    30  25  80 NW7       30.01R WCI  23
MARSHFIELD     CLOUDY    30  22  72 NW7       30.00R WCI  23
STEVENS POINT  CLOUDY    29  21  72 NW9       30.01R WCI  20
WAUPACA        CLOUDY    34  24  66 NW7       30.01R WCI  28
WAUTOMA        CLOUDY    33  24  69 MISG      30.02R
WISC RAPIDS    CLOUDY    32  23  69 N13       30.03R WCI  22
CAMP DOUGLAS   NOT AVBL
$$

WIZ011>013-019>022-031-037>040-048>050-021000-
NORTHEAST WISCONSIN

CITY           SKY/WX    TMP DP  RH WIND       PRES   REMARKS
ANTIGO         CLOUDY    28  23  80 NW12      29.96S WCI  18
SHAWANO        CLOUDY    33  24  68 NW5       30.00R WCI  28
OCONTO         CLOUDY    31  22  70 W5        29.98R WCI  26
STURGEON BAY   CLOUDY    33  23  66 NW15      29.97R WCI  23
GREEN BAY      CLOUDY    34  25  69 NW9       30.00R WCI  27
MANITOWOC      NOT AVBL
APPLETON       CLOUDY    32  23  69 N3        29.97R
CLINTONVILLE   CLOUDY    32  23  69 NW6       30.00R WCI  26
OSHKOSH        CLOUDY    34  25  69 W6        29.99R WCI  29
$$

WIZ032>034-041-042-053>061-021000-
SOUTHWEST WISCONSIN

CITY           SKY/WX    TMP DP  RH WIND       PRES   REMARKS
LA CROSSE      CLOUDY    37  26  64 NW14      30.06R WCI  28
SPARTA         CLOUDY    34  27  77 N8        30.05R WCI  27
VIROQUA        CLOUDY    33  31  92 NW5       30.03R WCI  29
BOSCOBEL       CLOUDY    38  32  79 SW5       30.06R WCI  34
PRAIRIE DU CHI CLOUDY    37  32  82 W6        30.06R WCI  32
PLATTEVILLE    CLOUDY    35  35  98 W7        30.05R WCI  30
$$

WIZ056-057-062-063-064-067-068-021000-
SOUTH CENTRAL WISCONSIN

CITY           SKY/WX    TMP DP  RH WIND       PRES   REMARKS
REEDSBURG      CLOUDY    34  26  74 NW5       30.03R WCI  30
BARABOO/DELLS  CLOUDY    34  26  73 NW8       30.02R WCI  27
LONE ROCK      NOT AVBL
MINERAL POINT  CLOUDY    36  34  93 W8        30.03R WCI  29
MADISON        LGT RAIN  35  32  88 NW3       30.02R
MIDDLETON      CLOUDY    36  36 100 W6        30.02R WCI  31
WATERTOWN      CLOUDY    35  32  91 N9        30.01R WCI  27
MONROE         CLOUDY    34  32  93 W12       30.02R WCI  25
JANESVILLE     CLOUDY    36  34  93 W6        30.02R WCI  31
$$

WIZ051-052-058>065-066-070>072-021000-
SOUTHEAST WISCONSIN

CITY           SKY/WX    TMP DP  RH WIND       PRES   REMARKS
MILWAUKEE      LGT RAIN  37  31  78 W14       30.01R WCI  28
WAUKESHA       LGT SNOW  32  30  93 W9        30.01R WCI  24
MILWAUKEE/TIMM CLOUDY    34  30  86 W8        30.01R WCI  27
RACINE         CLOUDY    37  31  78 W8        30.02R WCI  31
BURLINGTON     CLOUDY    35  32  88 W5        30.01R WCI  31
KENOSHA        CLOUDY    36  32  85 W10       30.01R WCI  28
FOND DU LAC    CLOUDY    34  24  67 W8        30.00R WCI  27
SHEBOYGAN      CLOUDY    35  26  69 NW6       29.99R WCI  30
WEST BEND      CLOUDY    34  30  86 NW10G17   29.99R WCI  26
JUNEAU         CLOUDY    33  28  83 NW8       30.02R WCI  26
$$

LSZ147-162-021000-
LAKE SUPERIOR

STATION/POSITION TIME  TEMP    WIND        PRES    WAVE
                       AIR SEA DIR/SP/G            HT/PER
                 (UTC) (F)     (DEG/KT/KT) (MB)    (FT/S)
DEVILS ISLAND    0800   30     310/ 14/ 16 1017.5R
PORT WING        0830   31     310/ 11/ 15 1017.9R
SAXON HARBOR     0840   33     310/ 13/ 16 1016.9R
$$

LMZ867-665-643>646-021000-
LAKE MICHIGAN

STATION/POSITION TIME  TEMP    WIND        PRES    WAVE
                       AIR SEA DIR/SP/G            HT/PER
                 (UTC) (F)     (DEG/KT/KT) (MB)    (FT/S)
CHAMBERS ISLAND  0840   33     270/  6/ 13 1014.2R
NORTHPORT PIER   0830   35     300/ 16/ 21 1013.9R
SISTER BAY       0808   34     320/ 20/ 23   N/A
ALGOMA LAKESHORE 0806          320/ 12/ 15   N/A
KEWAUNEE LAKESHO 0830   34     310/  9/ 15 1014.4R
SHEBOYGAN LAKESH 0800   37     310/  5/  7 1015.3R
PORT WASHINGTON  0830   36     310/  4/  7 1016.9R
MILWAUKEE LAKESH 0830   37     270/ 11/ 13   N/A
S MID LAKE BUOY  0750   41 49  260/ 19/ 23 1015.0R   5/ 5
KENOSHA   LAKESH 0800   37     260/  9/ 12 1016.3
$$

TC  - TEMPERATURE IN CELSIUS
VSB - VISIBILITY IN STATUTE MILES
WCI - WIND CHILL INDEX
HX  - HEAT INDEX





USA.gov is the U.S. government's official web portal to all federal, state and local government web resources and services.